Total_Precipitation_Accumulation
0.00 0.00 0.00 0.00 0.00 0.00 0.00 0.01 0.02 0.03 0.05 0.07 0.06 0.05 0.07 0.08 0.06 0.03 0.01 0.00 0.00 0.01 0.04 0.03 0.04 0.04 0.04 0.04 0.03 0.02 0.01 0.00 0.00 0.00 0.00 0.00 0.00 0.00 0.00 0.00 0.00 0.00 0.00
0.00 0.00 0.00 0.00 0.00 0.00 0.00 0.00 0.01 0.02 0.02 0.03 0.05 0.08 0.09 0.07 0.07 0.04 0.01 0.00 0.00 0.00 0.02 0.02 0.02 0.03 0.03 0.03 0.03 0.01 0.00 0.00 0.00 0.00 0.00 0.00 0.00 0.00 0.00 0.00 0.00 0.00 0.00
0.00 0.00 0.00 0.01 0.00 0.00 0.00 0.00 0.01 0.02 0.02 0.01 0.02 0.03 0.05 0.05 0.06 0.07 0.06 0.02 0.01 0.00 0.00 0.00 0.01 0.02 0.01 0.01 0.01 0.01 0.00 0.00 0.00 0.00 0.00 0.00 0.00 0.00 0.00 0.00 0.00 0.00 0.00
0.00 0.00 0.00 0.01 0.01 0.00 0.00 0.00 0.00 0.01 0.01 0.01 0.01 0.02 0.01 0.03 0.07 0.06 0.07 0.04 0.03 0.00 0.00 0.01 0.01 0.02 0.01 0.00 0.00 0.00 0.00 0.00 0.00 0.01 0.00 0.00 0.00 0.00 0.00 0.00 0.00 0.00 0.00
0.00 0.00 0.00 0.01 0.01 0.00 0.00 0.00 0.01 0.00 0.00 0.00 0.00 0.00 0.00 0.02 0.05 0.05 0.04 0.06 0.07 0.03 0.00 0.01 0.01 0.01 0.01 0.01 0.01 0.01 0.00 0.00 0.00 0.00 0.00 0.00 0.02 0.01 0.00 0.00 0.00 0.00 0.00
0.00 0.00 0.00 0.01 0.00 0.00 0.00 0.00 0.01 0.00 0.00 0.00 0.00 0.00 0.00 0.03 0.05 0.07 0.06 0.08 0.11 0.11 0.05 0.01 0.01 0.01 0.01 0.01 0.01 0.01 0.01 0.01 0.00 0.00 0.00 0.01 0.02 0.02 0.00 0.00 0.00 0.00 0.00
0.00 0.00 0.00 0.01 0.00 0.00 0.00 0.00 0.00 0.00 0.00 0.00 0.00 0.00 0.01 0.03 0.05 0.06 0.06 0.07 0.08 0.09 0.07 0.05 0.03 0.02 0.02 0.02 0.02 0.02 0.03 0.04 0.03 0.01 0.00 0.00 0.01 0.01 0.00 0.00 0.00 0.00 0.00
0.00 0.00 0.01 0.01 0.01 0.00 0.00 0.00 0.00 0.00 0.00 0.00 0.00 0.00 0.01 0.02 0.04 0.05 0.05 0.04 0.04 0.03 0.04 0.05 0.06 0.06 0.03 0.02 0.03 0.03 0.03 0.04 0.04 0.03 0.01 0.01 0.00 0.00 0.00 0.00 0.00 0.00 0.00
0.00 0.00 0.00 0.01 0.01 0.00 0.00 0.00 0.00 0.00 0.00 0.00 0.00 0.00 0.01 0.01 0.02 0.03 0.04 0.04 0.03 0.02 0.02 0.04 0.05 0.04 0.04 0.04 0.03 0.02 0.02 0.02 0.03 0.05 0.06 0.09 0.08 0.02 0.02 0.02 0.02 0.00 0.00
0.00 0.00 0.00 0.00 0.01 0.01 0.00 0.00 0.01 0.00 0.00 0.01 0.01 0.01 0.01 0.01 0.01 0.01 0.02 0.02 0.02 0.02 0.02 0.03 0.05 0.06 0.06 0.06 0.07 0.08 0.06 0.03 0.01 0.02 0.11 0.12 0.10 0.09 0.10 0.11 0.10 0.06 0.03
0.00 0.00 0.00 0.00 0.00 0.01 0.00 0.00 0.00 0.00 0.00 0.00 0.00 0.01 0.01 0.00 0.00 0.00 0.00 0.00 0.00 0.01 0.01 0.01 0.03 0.04 0.05 0.06 0.09 0.12 0.11 0.10 0.05 0.04 0.07 0.06 0.04 0.07 0.12 0.16 0.18 0.18 0.14
0.00 0.00 0.00 0.00 0.00 0.00 0.00 0.00 0.00 0.00 0.00 0.00 0.00 0.00 0.00 0.00 0.00 0.00 0.00 0.00 0.02 0.04 0.06 0.07 0.05 0.03 0.03 0.02 0.04 0.07 0.07 0.14 0.13 0.10 0.08 0.04 0.02 0.03 0.06 0.11 0.16 0.20 0.22
0.00 0.00 0.00 0.00 0.00 0.00 0.00 0.00 0.00 0.00 0.00 0.00 0.00 0.00 0.00 0.00 0.00 0.01 0.03 0.05 0.07 0.07 0.12 0.19 0.18 0.15 0.10 0.07 0.04 0.01 0.01 0.02 0.06 0.07 0.10 0.10 0.06 0.08 0.12 0.11 0.10 0.20 0.32
0.00 0.00 0.00 0.00 0.00 0.00 0.00 0.00 0.00 0.00 0.00 0.00 0.00 0.00 0.00 0.00 0.00 0.02 0.08 0.08 0.09 0.05 0.05 0.07 0.10 0.09 0.05 0.05 0.05 0.04 0.04 0.05 0.05 0.09 0.12 0.13 0.11 0.10 0.15 0.17 0.16 0.16 0.30
0.00 0.00 0.00 0.00 0.00 0.00 0.00 0.00 0.00 0.00 0.00 0.00 0.00 0.00 0.00 0.00 0.00 0.03 0.07 0.11 0.08 0.03 0.03 0.02 0.04 0.06 0.07 0.10 0.08 0.07 0.08 0.08 0.12 0.20 0.21 0.19 0.14 0.12 0.13 0.15 0.21 0.19 0.17
0.00 0.00 0.00 0.00 0.00 0.00 0.00 0.00 0.00 0.00 0.00 0.00 0.00 0.00 0.00 0.00 0.01 0.04 0.07 0.11 0.09 0.07 0.08 0.08 0.10 0.14 0.16 0.12 0.07 0.06 0.05 0.04 0.05 0.07 0.10 0.12 0.10 0.11 0.11 0.10 0.13 0.15 0.12
0.00 0.00 0.00 0.00 0.00 0.00 0.00 0.00 0.00 0.00 0.00 0.00 0.00 0.00 0.00 0.00 0.03 0.09 0.08 0.08 0.11 0.12 0.10 0.16 0.15 0.10 0.07 0.04 0.02 0.03 0.02 0.02 0.01 0.01 0.01 0.01 0.02 0.03 0.04 0.04 0.05 0.10 0.08
0.02 0.04 0.02 0.01 0.00 0.00 0.00 0.00 0.01 0.01 0.00 0.00 0.00 0.00 0.00 0.00 0.04 0.12 0.09 0.08 0.12 0.12 0.15 0.18 0.12 0.06 0.03 0.02 0.02 0.02 0.01 0.01 0.00 0.00 0.00 0.01 0.01 0.00 0.00 0.00 0.01 0.03 0.04
0.07 0.11 0.08 0.04 0.01 0.00 0.00 0.04 0.09 0.10 0.06 0.03 0.01 0.01 0.00 0.01 0.03 0.08 0.09 0.10 0.10 0.13 0.15 0.10 0.11 0.07 0.01 0.00 0.00 0.02 0.01 0.01 0.00 0.00 0.00 0.00 0.00 0.00 0.00 0.00 0.01 0.03 0.04
0.09 0.10 0.09 0.09 0.08 0.07 0.10 0.21 0.24 0.21 0.18 0.15 0.11 0.08 0.05 0.03 0.04 0.11 0.10 0.10 0.07 0.12 0.15 0.10 0.11 0.10 0.05 0.01 0.00 0.00 0.00 0.00 0.00 0.00 0.00 0.00 0.00 0.00 0.00 0.01 0.02 0.02 0.02
0.09 0.13 0.17 0.21 0.25 0.31 0.43 0.57 0.63 0.63 0.53 0.37 0.24 0.16 0.12 0.07 0.09 0.16 0.11 0.10 0.08 0.12 0.12 0.06 0.07 0.10 0.10 0.02 0.00 0.00 0.00 0.00 0.00 0.00 0.00 0.00 0.00 0.00 0.00 0.01 0.01 0.02 0.01
0.18 0.26 0.24 0.21 0.22 0.28 0.48 0.72 0.90 0.95 0.80 0.51 0.28 0.16 0.11 0.08 0.11 0.14 0.16 0.12 0.10 0.13 0.17 0.17 0.14 0.13 0.11 0.04 0.01 0.00 0.00 0.00 0.00 0.00 0.00 0.00 0.00 0.00 0.00 0.00 0.00 0.00 0.01
0.10 0.11 0.10 0.08 0.07 0.07 0.14 0.30 0.45 0.63 0.68 0.46 0.23 0.12 0.06 0.04 0.05 0.10 0.16 0.17 0.14 0.16 0.27 0.38 0.30 0.22 0.16 0.11 0.06 0.03 0.01 0.01 0.00 0.00 0.00 0.00 0.00 0.00 0.00 0.00 0.00 0.00 0.00
0.01 0.01 0.02 0.02 0.02 0.01 0.02 0.07 0.25 0.46 0.46 0.32 0.16 0.08 0.05 0.03 0.04 0.11 0.17 0.17 0.20 0.26 0.35 0.40 0.32 0.28 0.22 0.18 0.13 0.08 0.04 0.02 0.01 0.00 0.00 0.00 0.00 0.00 0.00 0.00 0.00 0.00 0.00
0.00 0.01 0.01 0.01 0.01 0.00 0.01 0.01 0.12 0.50 0.55 0.36 0.23 0.15 0.09 0.08 0.09 0.14 0.17 0.18 0.20 0.24 0.31 0.32 0.35 0.30 0.24 0.20 0.14 0.08 0.05 0.04 0.02 0.01 0.00 0.00 0.00 0.00 0.00 0.00 0.00 0.00 0.00
0.01 0.01 0.01 0.01 0.01 0.01 0.00 0.01 0.04 0.24 0.37 0.34 0.30 0.25 0.18 0.14 0.14 0.18 0.18 0.18 0.18 0.22 0.29 0.29 0.26 0.23 0.21 0.18 0.12 0.05 0.04 0.03 0.02 0.02 0.01 0.01 0.01 0.00 0.00 0.00 0.00 0.00 0.00